Погода в Рейссен-Холтене

Нидерланды     52°17′17″N   6°26′50″E
темп.,
°C
ветер,
м/с
пор.,
м/с
влажн.,
%
обл.,
%
осадки,
мм/ч
давл.,
гПа
погр.,
м
9 мая, вс
вс923:00+12ю6159427 0.0 1007358
02:00+11ю514949 0.0 1007284
05:00+10ю5139545 0.0 1005237
08:00+12ю51189100 0.0 1005255
11:00+17ю51080100 0.1 1004413
14:00+21ю71067100 1.0 10031087
17:00+24ю611625 0.0 10011591
20:00+20ююз497658 0.0 1001243
10 мая, пн
пн1023:00+17ю51479100 0.1 1001287
02:00+15ююз51194100 2.4 1002272
05:00+14ююв4119183 0.4 1001236
08:00+14ю81890100 2.1 10021121
11:00+14юз81488100 0.1 1004888
14:00+14зюз5989100 0.7 1007796
17:00+17ююз5863100 0.1 10081314
20:00+15ю4677100 0.4 1008167
11 мая, вт
вт1123:00+12ю3485100 0.2 100968
02:00+11ююв2392100 0.6 101063
05:00+11ю2396100 0.1 100980
08:00+13юв1290100 0.4 1010127
11:00+13юв568894 2.0 1010419
14:00+16вюв556991 2.1 1010985
17:00+15всв4576100 0.0 1009744
20:00+14в2383100 0.2 100993
12 мая, ср
ср1223:00+11в2294100 0.0 101041
02:00+9всв2295100 0.0 101021
05:00+9всв1195100 0.0 100916
08:00+11зюз2390100 0.0 1009249
11:00+11зсз4692100 0.1 1009542
14:00+11зсз4890100 0.3 1010429
17:00+15ссз5668100 0.1 10091033
20:00+12ссз3682100 0.3 1010345
13 мая, чт
чт1323:00+10ссз2392100 0.0 101147
02:00+8сз229495 0.0 101117
05:00+7зсз229448 0.0 101014
08:00+9зсз2387100 0.0 1010171
11:00+14сз336382 0.0 1010931
14:00+16ссз335299 0.0 10091604
17:00+17ссз335092 0.0 10091728
20:00+14ссв3675100 0.0 1009213